Y. Ramanjooloo (ハワイ大学天文研究所)の通報によると、9月20日、HaleakalaにあるPan-
STARRS2の1.8-m Ritchey-Chretien 反射望遠鏡で得た画像から彗星を発見した。
3枚の45-秒w-バンド露出では、1".3のシーイングで、2".1 (半値全幅:FWHM)の集光した頭部
が見えた。p.a. 223-237°に幅約5"、かすかで、まっすぐな11".5の尾がある。
その後、発見前の観測が小惑星センターに報告された。
9月15.4日 (Mt Lemmon、19.5-19.7等)、9月17.5日 (Pan-STARRS2、20.3-20.4等)、9月19.5日
(Pan-STARRS1, Haleakalaにある1.8-m Ritchey-Chretien 反射望遠鏡、20.2-20.5等)。
また、9月20.0日、T. Marotiがハンガリー、Csokakoにある0.28-m f/2.2 反射望遠鏡による
3個の観測がMPCの "isolated tracklet file "にあった。
小惑星センターのPCCP webpageに公表後、佐藤英貴氏(東京都文京区,9月21.32日、120-秒露出
8枚のスタック, 0.51-m f/6.8 アストログラフ, Utah Desert Remote 天文台, Beryl Junction
近郊, ユタ州, 米国, 遠隔操作:強く集光した6"のコマが見えるが尾はない。4".9の円形範囲
で測定した光度は19.5等であった)らCCD観測者によって彗星状と観測された。
彗星機能の報告は次のとおり、
OC Date Reporter Coma Tail PA Exposures
G96 2023-09-15 D. Rankin 8"
G00 2023-09-20 M. Jaeger 10" 11" 260 25x50s
U94 2023-09-21 H. Sato 8" 8x120s
W62 2023-09-21 J. Maikner 20" 35" 240 117x60s
U94 2023-09-25 T. Prystavski 5".9 10".5 229 5x120s
発見位置は次のとおり、
2023 UT R.A. (2000) Decl. Mag.
Sept.20.60443 2 28 54.43 +26 21 00.3 20.3
20.61228 2 28 54.25 +26 21 01.2 20.5
20.62011 2 28 54.11 +26 21 01.8 20.5
MPCの楕円軌道要素、位置推算表は次のとおり、
Orbital elements:
P/2023 S1
Epoch 2023 Sept. 13.0 TT = JDT 2460200.5
T 2025 Feb. 26.75903 TT Rudenko
q 2.6398821 (2000.0) P Q
n 0.13064992 Peri. 179.41967 -0.73507201 -0.66953615
a 3.8464783 Node 317.88631 +0.62139984 -0.60235904
e 0.3136886 Incl. 9.15753 +0.27116671 -0.43460894
P 7.54
From 81 observations 2023 Sept. 15-29, mean residual 0".1.
Ephemeris:
Date TT R. A. (2000) Decl. Delta r Elong. Phase m1
2023 08 30 02 31 28.5 +25 26 04 3.3384 3.8340 112.1 14.1 20.0
...
2023 09 14 02 30 37.5 +26 08 45 3.1103 3.7924 126.2 12.4 19.8
...
2023 09 22 02 28 26.5 +26 23 00 3.0021 3.7701 134.1 11.0 19.7
...
2023 09 28 02 26 02.0 +26 29 10 2.9288 3.7532 140.1 9.9 19.6
2023 09 29 02 25 34.3 +26 29 47 2.9173 3.7504 141.1 9.7 19.6
2023 09 30 02 25 05.5 +26 30 17 2.9060 3.7476 142.1 9.4 19.6
...
2023 10 06 02 21 52.4 +26 30 44 2.8432 3.7307 148.2 8.1 19.5
...
2023 10 14 02 16 46.7 +26 24 11 2.7732 3.7081 156.2 6.2 19.4
...
2023 10 29 02 05 38.5 +25 50 10 2.6898 3.6654 167.3 3.4 19.3
(MPEC 2023-S264、CBET 5296)